START_TIME,STEP,MOV.,M34,t_acc.,L5,t_acc.,L18,t_acc.,L14,t_acc.
1979-07-13 03:00:25.050 ,1,0,0.,12.0,0.,12.0,0.,12.0,0.,12.0
1979-07-13 03:00:37.050 ,1,0,0.,12.0,0.,12.0,0.,12.0,0.,12.0
1979-07-13 03:00:49.050 ,2,1,2.,12.0,0.,12.0,0.,12.0,0.,12.0
1979-07-13 03:01:01.050 ,2,1,0.,12.0,0.,12.0,0.,12.0,0.,12.0
1979-07-13 03:01:13.050 ,2,0,0.,12.0,0.,12.0,0.,12.0,0.,12.0
1979-07-13 03:01:25.050 ,2,0,0.,12.0,0.,12.0,0.,12.0,0.,12.0
1979-07-13 03:01:37.050 ,3,1,0.,12.0,0.,12.0,0.,12.0,2.,12.0
1979-07-13 03:01:49.050 ,3,1,0.,12.0,0.,12.0,0.,12.0,0.,12.0
1979-07-13 03:02:01.050 ,3,0,0.,12.0,0.,12.0,0.,12.0,0.,12.0
1979-07-13 03:02:13.050 ,3,0,1.,12.0,0.,12.0,0.,12.0,0.,12.0
1979-07-13 03:02:25.050 ,4,1,0.,12.0,0.,12.0,0.,12.0,0.,12.0
1979-07-13 03:02:37.050 ,4,1,0.,12.0,0.,12.0,0.,12.0,0.,12.0
1979-07-13 03:02:49.050 ,4,0,0.,12.0,0.,12.0,0.,12.0,0.,12.0
1979-07-13 03:03:01.050 ,4,0,0.,12.0,0.,12.0,0.,12.0,0.,12.0
1979-07-13 03:03:13.050 ,5,1,1.,12.0,0.,12.0,0.,12.0,0.,12.0
1979-07-13 03:03:25.050 ,5,1,1.,12.0,0.,12.0,0.,12.0,0.,12.0
1979-07-13 03:03:37.050 ,5,0,3.,12.0,0.,12.0,0.,12.0,0.,12.0
1979-07-13 03:03:49.050 ,5,0,2.,12.0,0.,12.0,0.,12.0,0.,12.0
1979-07-13 03:04:01.050 ,6,1,2.,12.0,0.,12.0,0.,12.0,0.,12.0
1979-07-13 03:04:13.050 ,6,1,3.,12.0,0.,12.0,0.,12.0,1.,12.0
1979-07-13 03:04:25.050 ,6,0,0.,12.0,0.,12.0,0.,12.0,0.,12.0
1979-07-13 03:04:37.050 ,6,0,1.,12.0,0.,12.0,0.,12.0,0.,12.0
1979-07-13 03:04:49.050 ,7,1,3.,12.0,0.,12.0,0.,12.0,0.,12.0
1979-07-13 03:05:01.050 ,7,1,0.,12.0,0.,12.0,0.,12.0,0.,12.0
1979-07-13 03:05:13.050 ,7,0,0.,12.0,0.,12.0,0.,12.0,1.,12.0
1979-07-13 03:05:25.050 ,7,0,0.,12.0,0.,12.0,0.,12.0,0.,12.0
1979-07-13 03:05:37.050 ,7,1,0.,12.0,0.,12.0,0.,12.0,0.,12.0
1979-07-13 03:05:49.050 ,7,1,0.,12.0,0.,12.0,0.,12.0,0.,12.0
1979-07-13 03:06:01.050 ,7,0,0.,12.0,0.,12.0,0.,12.0,0.,12.0
1979-07-13 03:06:13.050 ,7,0,0.,12.0,0.,12.0,0.,12.0,1.,12.0
1979-07-13 03:06:25.050 ,6,1,0.,12.0,0.,12.0,0.,12.0,0.,12.0
1979-07-13 03:06:37.050 ,6,1,2.,12.0,0.,12.0,0.,12.0,0.,12.0
1979-07-13 03:06:49.050 ,6,0,5.,12.0,0.,12.0,0.,12.0,0.,12.0
1979-07-13 03:07:01.050 ,6,0,2.,12.0,0.,12.0,0.,12.0,0.,12.0
1979-07-13 03:07:13.050 ,5,1,4.,12.0,0.,12.0,0.,12.0,0.,12.0
1979-07-13 03:07:25.050 ,5,1,9.,12.0,0.,12.0,0.,12.0,0.,12.0
1979-07-13 03:07:37.050 ,5,0,7.,12.0,0.,12.0,0.,12.0,0.,12.0
1979-07-13 03:07:49.050 ,5,0,7.,12.0,0.,12.0,0.,12.0,0.,12.0
1979-07-13 03:08:01.050 ,4,1,8.,12.0,0.,12.0,0.,12.0,0.,12.0
1979-07-13 03:08:13.050 ,4,1,6.,12.0,0.,12.0,0.,12.0,0.,12.0
1979-07-13 03:08:25.050 ,4,0,8.,12.0,0.,12.0,0.,12.0,0.,12.0
1979-07-13 03:08:37.050 ,4,0,10.,12.0,0.,12.0,0.,12.0,0.,12.0
1979-07-13 03:08:49.050 ,3,1,10.,12.0,0.,12.0,0.,12.0,0.,12.0
1979-07-13 03:09:01.050 ,3,1,7.,12.0,0.,12.0,0.,12.0,0.,12.0
1979-07-13 03:09:13.050 ,3,0,6.,12.0,0.,12.0,0.,12.0,0.,12.0
1979-07-13 03:09:25.050 ,3,0,2.,12.0,0.,12.0,0.,12.0,0.,12.0
1979-07-13 03:09:37.050 ,2,1,12.,12.0,0.,12.0,0.,12.0,0.,12.0
1979-07-13 03:09:49.050 ,2,1,5.,12.0,0.,12.0,0.,12.0,0.,12.0
1979-07-13 03:10:01.050 ,2,0,2.,12.0,0.,12.0,0.,12.0,0.,12.0
1979-07-13 03:10:13.050 ,2,0,8.,12.0,0.,12.0,0.,12.0,0.,12.0
1979-07-13 03:10:25.050 ,1,1,4.,12.0,0.,12.0,0.,12.0,0.,12.0
1979-07-13 03:10:37.050 ,1,1,7.,12.0,0.,12.0,0.,12.0,0.,12.0
1979-07-13 03:10:49.050 ,1,0,6.,12.0,0.,12.0,0.,12.0,0.,12.0
1979-07-13 03:11:01.050 ,1,0,2.,12.0,0.,12.0,0.,12.0,0.,12.0
1979-07-13 03:11:13.050 ,0,1,2.,12.0,0.,12.0,0.,12.0,0.,12.0
1979-07-13 03:11:25.050 ,0,1,1.,12.0,0.,12.0,0.,12.0,2.,12.0
1979-07-13 03:11:37.050 ,0,0,3.,12.0,0.,12.0,0.,12.0,0.,12.0
1979-07-13 03:11:49.050 ,0,0,0.,12.0,0.,12.0,0.,12.0,0.,12.0
1979-07-13 03:12:01.050 ,0,1,3.,12.0,0.,12.0,0.,12.0,0.,12.0
1979-07-13 03:12:13.050 ,0,1,2.,12.0,0.,12.0,0.,12.0,0.,12.0
1979-07-13 03:12:25.050 ,0,0,0.,12.0,0.,12.0,0.,12.0,0.,12.0
1979-07-13 03:12:37.050 ,0,0,1.,12.0,0.,12.0,0.,12.0,0.,12.0
1979-07-13 03:12:49.050 ,1,1,4.,12.0,0.,12.0,0.,12.0,1.,12.0
1979-07-13 03:13:01.050 ,1,1,2.,12.0,0.,12.0,0.,12.0,0.,12.0
1979-07-13 03:13:13.050 ,1,0,1.,12.0,0.,12.0,0.,12.0,0.,12.0
1979-07-13 03:13:25.050 ,1,0,4.,12.0,0.,12.0,0.,12.0,0.,12.0
1979-07-13 03:13:37.050 ,2,1,3.,12.0,0.,12.0,0.,12.0,0.,12.0
1979-07-13 03:13:49.050 ,2,1,6.,12.0,0.,12.0,0.,12.0,0.,12.0
1979-07-13 03:14:01.050 ,2,0,3.,12.0,0.,12.0,0.,12.0,0.,12.0
1979-07-13 03:14:13.050 ,2,0,3.,12.0,0.,12.0,0.,12.0,0.,12.0
1979-07-13 03:14:25.050 ,3,1,6.,12.0,0.,12.0,0.,12.0,0.,12.0
1979-07-13 03:14:37.050 ,3,1,9.,12.0,0.,12.0,0.,12.0,0.,12.0
1979-07-13 03:14:49.050 ,3,0,10.,12.0,0.,12.0,0.,12.0,0.,12.0
1979-07-13 03:15:01.050 ,3,0,9.,12.0,0.,12.0,0.,12.0,0.,12.0
1979-07-13 03:15:13.050 ,4,1,10.,12.0,0.,12.0,0.,12.0,0.,12.0
1979-07-13 03:15:25.050 ,4,1,13.,12.0,0.,12.0,0.,12.0,1.,12.0
1979-07-13 03:15:37.050 ,4,0,3.,12.0,1.,12.0,0.,12.0,1.,12.0
1979-07-13 03:15:49.050 ,4,0,12.,12.0,0.,12.0,0.,12.0,1.,12.0
1979-07-13 03:16:01.050 ,5,1,8.,12.0,0.,12.0,0.,12.0,0.,12.0
1979-07-13 03:16:13.050 ,5,1,12.,12.0,0.,12.0,0.,12.0,0.,12.0
1979-07-13 03:16:25.050 ,5,0,15.,12.0,0.,12.0,0.,12.0,0.,12.0
1979-07-13 03:16:37.050 ,5,0,19.,12.0,0.,12.0,0.,12.0,0.,12.0
1979-07-13 03:16:49.050 ,6,1,15.,12.0,0.,12.0,0.,12.0,0.,12.0
1979-07-13 03:17:01.050 ,6,1,8.,12.0,0.,12.0,0.,12.0,0.,12.0
1979-07-13 03:17:13.050 ,6,0,7.,12.0,0.,12.0,0.,12.0,0.,12.0
1979-07-13 03:17:25.050 ,6,0,9.,12.0,0.,12.0,0.,12.0,0.,12.0
1979-07-13 03:17:37.050 ,7,1,7.,12.0,0.,12.0,0.,12.0,0.,12.0
1979-07-13 03:17:49.050 ,7,1,1.,12.0,0.,12.0,0.,12.0,0.,12.0
1979-07-13 03:18:01.050 ,7,0,0.,12.0,0.,12.0,0.,12.0,0.,12.0
1979-07-13 03:18:13.050 ,7,0,0.,12.0,0.,12.0,0.,12.0,1.,12.0
1979-07-13 03:18:25.050 ,7,1,0.,12.0,0.,12.0,0.,12.0,0.,12.0
1979-07-13 03:18:37.050 ,7,1,0.,12.0,0.,12.0,0.,12.0,0.,12.0
1979-07-13 03:18:49.050 ,7,0,0.,12.0,0.,12.0,0.,12.0,0.,12.0
1979-07-13 03:19:01.050 ,7,0,0.,12.0,0.,12.0,0.,12.0,0.,12.0
1979-07-13 03:19:13.050 ,6,1,0.,12.0,0.,12.0,0.,12.0,0.,12.0
1979-07-13 03:19:25.050 ,6,1,6.,12.0,0.,12.0,0.,12.0,0.,12.0
1979-07-13 03:19:37.050 ,6,0,12.,12.0,0.,12.0,0.,12.0,0.,12.0
1979-07-13 03:19:49.050 ,6,0,12.,12.0,0.,12.0,0.,12.0,0.,12.0
1979-07-13 03:20:01.050 ,5,1,9.,12.0,0.,12.0,0.,12.0,0.,12.0
1979-07-13 03:20:13.050 ,5,1,18.,12.0,0.,12.0,0.,12.0,0.,12.0
1979-07-13 03:20:25.050 ,5,0,17.,12.0,0.,12.0,0.,12.0,1.,12.0
1979-07-13 03:20:37.050 ,5,0,14.,12.0,0.,12.0,0.,12.0,0.,12.0
1979-07-13 03:20:49.050 ,4,1,19.,12.0,0.,12.0,0.,12.0,0.,12.0
1979-07-13 03:21:01.050 ,4,1,25.,12.0,0.,12.0,0.,12.0,0.,12.0
1979-07-13 03:21:13.050 ,4,0,19.,12.0,0.,12.0,0.,12.0,0.,12.0
1979-07-13 03:21:25.050 ,4,0,18.,12.0,0.,12.0,0.,12.0,0.,12.0
1979-07-13 03:21:37.050 ,3,1,10.,12.0,0.,12.0,0.,12.0,0.,12.0
1979-07-13 03:21:49.050 ,3,1,9.,12.0,0.,12.0,0.,12.0,0.,12.0
1979-07-13 03:22:01.050 ,3,0,13.,12.0,0.,12.0,0.,12.0,0.,12.0
1979-07-13 03:22:13.050 ,3,0,9.,12.0,0.,12.0,0.,12.0,0.,12.0
1979-07-13 03:22:25.050 ,2,1,18.,12.0,0.,12.0,0.,12.0,2.,12.0
1979-07-13 03:22:37.050 ,2,1,10.,12.0,0.,12.0,0.,12.0,0.,12.0
1979-07-13 03:22:49.050 ,2,0,6.,12.0,0.,12.0,0.,12.0,2.,12.0
1979-07-13 03:23:01.050 ,2,0,9.,12.0,0.,12.0,0.,12.0,0.,12.0
1979-07-13 03:23:13.050 ,1,1,17.,12.0,0.,12.0,0.,12.0,0.,12.0
1979-07-13 03:23:25.050 ,1,1,4.,12.0,0.,12.0,0.,12.0,0.,12.0
1979-07-13 03:23:37.050 ,1,0,4.,12.0,0.,12.0,0.,12.0,0.,12.0
1979-07-13 03:23:49.050 ,1,0,7.,12.0,0.,12.0,0.,12.0,0.,12.0
1979-07-13 03:24:01.050 ,0,0,8.,12.0,0.,12.0,0.,12.0,0.,12.0
1979-07-13 03:24:13.050 ,0,0,7.,12.0,0.,12.0,0.,12.0,0.,12.0
1979-07-13 03:24:25.050 ,0,0,,0,,0,,0,,0
1979-07-13 03:24:37.050 ,0,0,,0,,0,,0,,0
1979-07-13 03:24:49.050 ,0,1,8.,12.0,0.,12.0,0.,12.0,0.,12.0
1979-07-13 03:25:01.050 ,0,1,4.,12.0,0.,12.0,0.,12.0,0.,12.0
1979-07-13 03:25:13.050 ,0,0,4.,12.0,0.,12.0,0.,12.0,1.,12.0
1979-07-13 03:25:25.050 ,0,0,6.,12.0,0.,12.0,0.,12.0,0.,12.0
1979-07-13 03:25:37.050 ,1,1,3.,12.0,0.,12.0,0.,12.0,1.,12.0
1979-07-13 03:25:49.050 ,1,1,2.,12.0,0.,12.0,0.,12.0,0.,12.0
1979-07-13 03:26:01.050 ,1,0,8.,12.0,0.,12.0,0.,12.0,0.,12.0
1979-07-13 03:26:13.050 ,1,0,6.,12.0,0.,12.0,0.,12.0,0.,12.0
1979-07-13 03:26:25.050 ,2,1,6.,12.0,0.,12.0,0.,12.0,0.,12.0
1979-07-13 03:26:37.050 ,2,1,8.,12.0,0.,12.0,0.,12.0,0.,12.0
1979-07-13 03:26:49.050 ,2,0,10.,12.0,0.,12.0,0.,12.0,0.,12.0
1979-07-13 03:27:01.050 ,2,0,10.,12.0,0.,12.0,0.,12.0,0.,12.0
1979-07-13 03:27:13.050 ,3,1,11.,12.0,0.,12.0,0.,12.0,1.,12.0
1979-07-13 03:27:25.050 ,3,1,11.,12.0,0.,12.0,0.,12.0,0.,12.0
1979-07-13 03:27:37.050 ,3,0,8.,12.0,0.,12.0,0.,12.0,0.,12.0
1979-07-13 03:27:49.050 ,3,0,14.,12.0,0.,12.0,0.,12.0,1.,12.0
1979-07-13 03:28:01.050 ,4,1,10.,12.0,0.,12.0,0.,12.0,0.,12.0
1979-07-13 03:28:13.050 ,4,1,12.,12.0,0.,12.0,0.,12.0,0.,12.0
1979-07-13 03:28:25.050 ,4,0,13.,12.0,0.,12.0,0.,12.0,1.,12.0
1979-07-13 03:28:37.050 ,4,0,12.,12.0,0.,12.0,0.,12.0,0.,12.0
1979-07-13 03:28:49.050 ,5,1,17.,12.0,0.,12.0,0.,12.0,0.,12.0
1979-07-13 03:29:01.050 ,5,1,20.,12.0,0.,12.0,0.,12.0,0.,12.0
1979-07-13 03:29:13.050 ,5,0,16.,12.0,0.,12.0,0.,12.0,0.,12.0
1979-07-13 03:29:25.050 ,5,0,21.,12.0,0.,12.0,0.,12.0,0.,12.0
1979-07-13 03:29:37.050 ,6,1,24.,12.0,0.,12.0,0.,12.0,0.,12.0
1979-07-13 03:29:49.050 ,6,1,16.,12.0,0.,12.0,0.,12.0,0.,12.0
1979-07-13 03:30:01.050 ,6,0,16.,12.0,1.,12.0,0.,12.0,0.,12.0
1979-07-13 03:30:13.050 ,6,0,14.,12.0,0.,12.0,0.,12.0,0.,12.0
1979-07-13 03:30:25.050 ,7,0,20.,12.0,0.,12.0,0.,12.0,0.,12.0
1979-07-13 03:30:37.050 ,7,0,2.,12.0,0.,12.0,0.,12.0,2.,12.0
1979-07-13 03:30:49.050 ,7,0,0.,12.0,0.,12.0,0.,12.0,0.,12.0
1979-07-13 03:31:01.050 ,7,0,0.,12.0,0.,12.0,0.,12.0,0.,12.0
1979-07-13 03:31:13.050 ,4,1,3.,12.0,0.,12.0,0.,12.0,0.,12.0
1979-07-13 03:31:25.050 ,4,1,17.,12.0,0.,12.0,0.,12.0,0.,12.0
1979-07-13 03:31:37.050 ,0,1,14.,12.0,0.,12.0,0.,12.0,0.,12.0
1979-07-13 03:31:49.050 ,0,1,5.,12.0,0.,12.0,0.,12.0,0.,12.0
1979-07-13 03:32:01.050 ,3,1,6.,12.0,0.,12.0,0.,12.0,0.,12.0
1979-07-13 03:32:13.050 ,3,1,11.,12.0,0.,12.0,0.,12.0,0.,12.0
1979-07-13 03:32:25.050 ,7,1,20.,12.0,0.,12.0,0.,12.0,0.,12.0
1979-07-13 03:32:37.050 ,7,1,16.,12.0,0.,12.0,0.,12.0,0.,12.0
1979-07-13 03:32:49.050 ,4,1,2.,12.0,0.,12.0,0.,12.0,0.,12.0
1979-07-13 03:33:01.050 ,4,1,23.,12.0,0.,12.0,0.,12.0,0.,12.0
1979-07-13 03:33:13.050 ,0,1,13.,12.0,0.,12.0,0.,12.0,1.,12.0
1979-07-13 03:33:25.050 ,0,1,8.,12.0,0.,12.0,0.,12.0,0.,12.0
1979-07-13 03:33:37.050 ,3,1,6.,12.0,0.,12.0,0.,12.0,0.,12.0
1979-07-13 03:33:49.050 ,3,1,10.,12.0,0.,12.0,0.,12.0,1.,12.0
1979-07-13 03:34:01.050 ,7,1,24.,12.0,0.,12.0,0.,12.0,0.,12.0
1979-07-13 03:34:13.050 ,7,1,17.,12.0,0.,12.0,0.,12.0,0.,12.0
1979-07-13 03:34:25.050 ,4,1,1.,12.0,0.,12.0,0.,12.0,0.,12.0
1979-07-13 03:34:37.050 ,4,1,22.,12.0,0.,12.0,0.,12.0,0.,12.0
1979-07-13 03:34:49.050 ,0,1,17.,12.0,0.,12.0,0.,12.0,0.,12.0
1979-07-13 03:35:01.050 ,0,1,10.,12.0,0.,12.0,0.,12.0,0.,12.0
1979-07-13 03:35:13.050 ,3,1,3.,12.0,0.,12.0,0.,12.0,0.,12.0
1979-07-13 03:35:25.050 ,3,1,19.,12.0,0.,12.0,0.,12.0,1.,12.0
1979-07-13 03:35:37.050 ,7,1,19.,12.0,0.,12.0,0.,12.0,0.,12.0
1979-07-13 03:35:49.050 ,7,1,19.,12.0,0.,12.0,0.,12.0,0.,12.0
1979-07-13 03:36:01.050 ,4,1,2.,12.0,0.,12.0,0.,12.0,0.,12.0
1979-07-13 03:36:13.050 ,4,1,23.,12.0,0.,12.0,0.,12.0,0.,12.0
1979-07-13 03:36:25.050 ,0,1,17.,12.0,0.,12.0,0.,12.0,2.,12.0
1979-07-13 03:36:37.050 ,0,1,8.,12.0,0.,12.0,0.,12.0,0.,12.0
1979-07-13 03:36:49.050 ,3,1,7.,12.0,0.,12.0,0.,12.0,0.,12.0
1979-07-13 03:37:01.050 ,3,1,10.,12.0,0.,12.0,0.,12.0,0.,12.0
1979-07-13 03:37:13.050 ,7,1,22.,12.0,0.,12.0,0.,12.0,0.,12.0
1979-07-13 03:37:25.050 ,7,1,14.,12.0,0.,12.0,0.,12.0,1.,12.0
1979-07-13 03:37:37.050 ,4,1,2.,12.0,0.,12.0,0.,12.0,0.,12.0
1979-07-13 03:37:49.050 ,4,1,20.,12.0,0.,12.0,0.,12.0,0.,12.0
1979-07-13 03:38:01.050 ,0,1,13.,12.0,0.,12.0,0.,12.0,1.,12.0
1979-07-13 03:38:13.050 ,0,1,8.,12.0,0.,12.0,0.,12.0,0.,12.0
1979-07-13 03:38:25.050 ,3,1,5.,12.0,0.,12.0,0.,12.0,0.,12.0
1979-07-13 03:38:37.050 ,3,1,8.,12.0,0.,12.0,0.,12.0,0.,12.0
1979-07-13 03:38:49.050 ,7,1,18.,12.0,0.,12.0,0.,12.0,1.,12.0
1979-07-13 03:39:01.050 ,7,1,9.,12.0,0.,12.0,0.,12.0,2.,12.0
1979-07-13 03:39:13.050 ,4,1,1.,12.0,0.,12.0,0.,12.0,0.,12.0
1979-07-13 03:39:25.050 ,4,1,21.,12.0,0.,12.0,0.,12.0,0.,12.0
1979-07-13 03:39:37.050 ,0,1,14.,12.0,0.,12.0,0.,12.0,0.,12.0
1979-07-13 03:39:49.050 ,0,1,6.,12.0,0.,12.0,0.,12.0,0.,12.0
1979-07-13 03:40:01.050 ,3,1,2.,12.0,0.,12.0,0.,12.0,0.,12.0
1979-07-13 03:40:13.050 ,3,1,9.,12.0,0.,12.0,0.,12.0,0.,12.0
1979-07-13 03:40:25.050 ,7,1,14.,12.0,0.,12.0,0.,12.0,0.,12.0
1979-07-13 03:40:37.050 ,7,1,14.,12.0,0.,12.0,0.,12.0,0.,12.0
1979-07-13 03:40:49.050 ,4,1,1.,12.0,0.,12.0,0.,12.0,1.,12.0
1979-07-13 03:41:01.050 ,4,1,15.,12.0,0.,12.0,0.,12.0,0.,12.0
1979-07-13 03:41:13.050 ,0,1,16.,12.0,0.,12.0,0.,12.0,0.,12.0
1979-07-13 03:41:25.050 ,0,1,4.,12.0,0.,12.0,0.,12.0,0.,12.0
1979-07-13 03:41:37.050 ,0,0,2.,12.0,0.,12.0,0.,12.0,0.,12.0
1979-07-13 03:41:49.050 ,0,0,14.,12.0,0.,12.0,0.,12.0,0.,12.0
1979-07-13 03:42:01.050 ,0,0,13.,12.0,0.,12.0,0.,12.0,1.,12.0
1979-07-13 03:42:13.050 ,0,0,11.,12.0,0.,12.0,0.,12.0,0.,12.0
1979-07-13 03:42:25.050 ,5,1,3.,12.0,0.,12.0,0.,12.0,0.,12.0
1979-07-13 03:42:37.050 ,5,1,11.,12.0,0.,12.0,0.,12.0,0.,12.0
1979-07-13 03:42:49.050 ,5,0,16.,12.0,0.,12.0,0.,12.0,0.,12.0
1979-07-13 03:43:01.050 ,5,0,16.,12.0,0.,12.0,0.,12.0,0.,12.0
1979-07-13 03:43:13.050 ,4,1,10.,12.0,0.,12.0,0.,12.0,1.,12.0
1979-07-13 03:43:25.050 ,4,1,9.,12.0,0.,12.0,0.,12.0,0.,12.0
1979-07-13 03:43:37.050 ,4,0,16.,12.0,0.,12.0,0.,12.0,1.,12.0
1979-07-13 03:43:49.050 ,4,0,12.,12.0,0.,12.0,0.,12.0,0.,12.0
1979-07-13 03:44:01.050 ,3,1,11.,12.0,0.,12.0,0.,12.0,1.,12.0
1979-07-13 03:44:13.050 ,3,1,11.,12.0,0.,12.0,0.,12.0,0.,12.0
1979-07-13 03:44:25.050 ,3,0,9.,12.0,0.,12.0,0.,12.0,0.,12.0
1979-07-13 03:44:37.050 ,3,0,13.,12.0,0.,12.0,0.,12.0,0.,12.0
1979-07-13 03:44:49.050 ,2,1,12.,12.0,0.,12.0,0.,12.0,1.,12.0
1979-07-13 03:45:01.050 ,2,1,13.,12.0,0.,12.0,0.,12.0,0.,12.0
1979-07-13 03:45:13.050 ,2,0,12.,12.0,0.,12.0,0.,12.0,1.,12.0
1979-07-13 03:45:25.050 ,2,0,11.,12.0,0.,12.0,0.,12.0,0.,12.0
1979-07-13 03:45:37.050 ,1,1,12.,12.0,0.,12.0,0.,12.0,0.,12.0
1979-07-13 03:45:49.050 ,1,1,8.,12.0,0.,12.0,0.,12.0,0.,12.0
1979-07-13 03:46:01.050 ,1,0,2.,12.0,0.,12.0,0.,12.0,0.,12.0
1979-07-13 03:46:13.050 ,1,0,1.,12.0,0.,12.0,0.,12.0,0.,12.0
1979-07-13 03:46:25.050 ,0,1,2.,12.0,0.,12.0,0.,12.0,0.,12.0
1979-07-13 03:46:37.050 ,0,1,5.,12.0,0.,12.0,0.,12.0,0.,12.0
1979-07-13 03:46:49.050 ,0,0,2.,12.0,0.,12.0,0.,12.0,0.,12.0
1979-07-13 03:47:01.050 ,0,0,2.,12.0,0.,12.0,0.,12.0,0.,12.0
1979-07-13 03:47:13.050 ,0,1,3.,12.0,0.,12.0,0.,12.0,0.,12.0
1979-07-13 03:47:25.050 ,0,1,5.,12.0,0.,12.0,0.,12.0,0.,12.0
1979-07-13 03:47:37.050 ,0,0,3.,12.0,0.,12.0,0.,12.0,1.,12.0
1979-07-13 03:47:49.050 ,0,0,6.,12.0,0.,12.0,0.,12.0,1.,12.0
1979-07-13 03:48:01.050 ,1,1,5.,12.0,0.,12.0,0.,12.0,0.,12.0
1979-07-13 03:48:13.050 ,1,1,4.,12.0,0.,12.0,0.,12.0,1.,12.0
1979-07-13 03:48:25.050 ,1,0,4.,12.0,0.,12.0,0.,12.0,2.,12.0
1979-07-13 03:48:37.050 ,1,0,7.,12.0,0.,12.0,0.,12.0,1.,12.0
1979-07-13 03:48:49.050 ,2,1,3.,12.0,0.,12.0,0.,12.0,0.,12.0
1979-07-13 03:49:01.050 ,2,1,11.,12.0,0.,12.0,0.,12.0,1.,12.0
1979-07-13 03:49:13.050 ,2,0,12.,12.0,0.,12.0,0.,12.0,0.,12.0
1979-07-13 03:49:25.050 ,2,0,12.,12.0,0.,12.0,0.,12.0,0.,12.0
1979-07-13 03:49:37.050 ,3,1,9.,12.0,0.,12.0,0.,12.0,0.,12.0
1979-07-13 03:49:49.050 ,3,1,9.,12.0,0.,12.0,0.,12.0,0.,12.0
1979-07-13 03:50:01.050 ,3,0,10.,12.0,0.,12.0,0.,12.0,0.,12.0
1979-07-13 03:50:13.050 ,3,0,14.,12.0,0.,12.0,0.,12.0,0.,12.0
1979-07-13 03:50:25.050 ,4,1,8.,12.0,0.,12.0,0.,12.0,0.,12.0
1979-07-13 03:50:37.050 ,4,1,21.,12.0,0.,12.0,0.,12.0,0.,12.0
1979-07-13 03:50:49.050 ,4,0,10.,12.0,0.,12.0,0.,12.0,0.,12.0
1979-07-13 03:51:01.050 ,4,0,7.,12.0,0.,12.0,0.,12.0,0.,12.0
1979-07-13 03:51:13.050 ,5,1,13.,12.0,0.,12.0,0.,12.0,0.,12.0
1979-07-13 03:51:25.050 ,5,1,11.,12.0,0.,12.0,0.,12.0,0.,12.0
1979-07-13 03:51:37.050 ,5,0,22.,12.0,0.,12.0,0.,12.0,1.,12.0
1979-07-13 03:51:49.050 ,5,0,12.,12.0,0.,12.0,0.,12.0,0.,12.0
1979-07-13 03:52:01.050 ,6,1,15.,12.0,0.,12.0,0.,12.0,0.,12.0
1979-07-13 03:52:13.050 ,6,1,10.,12.0,0.,12.0,0.,12.0,1.,12.0
1979-07-13 03:52:25.050 ,6,0,5.,12.0,0.,12.0,0.,12.0,0.,12.0
1979-07-13 03:52:37.050 ,6,0,6.,12.0,0.,12.0,0.,12.0,0.,12.0
1979-07-13 03:52:49.050 ,7,1,2.,12.0,0.,12.0,0.,12.0,0.,12.0
1979-07-13 03:53:01.050 ,7,1,0.,12.0,0.,12.0,0.,12.0,0.,12.0
1979-07-13 03:53:13.050 ,7,0,0.,12.0,0.,12.0,0.,12.0,0.,12.0
1979-07-13 03:53:25.050 ,7,0,0.,12.0,0.,12.0,0.,12.0,0.,12.0
1979-07-13 03:53:37.050 ,7,1,0.,12.0,0.,12.0,0.,12.0,0.,12.0
1979-07-13 03:53:49.050 ,7,1,0.,12.0,0.,12.0,0.,12.0,0.,12.0
1979-07-13 03:54:01.050 ,7,0,0.,12.0,0.,12.0,0.,12.0,0.,12.0
1979-07-13 03:54:13.050 ,7,0,0.,12.0,0.,12.0,0.,12.0,0.,12.0
1979-07-13 03:54:25.050 ,6,1,0.,12.0,0.,12.0,0.,12.0,0.,12.0
1979-07-13 03:54:37.050 ,6,1,8.,12.0,0.,12.0,0.,12.0,1.,12.0
1979-07-13 03:54:49.050 ,6,0,5.,12.0,0.,12.0,0.,12.0,0.,12.0
1979-07-13 03:55:01.050 ,6,0,3.,12.0,0.,12.0,0.,12.0,0.,12.0
1979-07-13 03:55:13.050 ,5,1,10.,12.0,0.,12.0,0.,12.0,0.,12.0
1979-07-13 03:55:25.050 ,5,1,15.,12.0,0.,12.0,0.,12.0,1.,12.0
1979-07-13 03:55:37.050 ,5,0,17.,12.0,0.,12.0,0.,12.0,0.,12.0
1979-07-13 03:55:49.050 ,5,0,10.,12.0,0.,12.0,0.,12.0,0.,12.0
1979-07-13 03:56:01.050 ,4,1,6.,12.0,0.,12.0,0.,12.0,0.,12.0
1979-07-13 03:56:13.050 ,4,1,8.,12.0,0.,12.0,0.,12.0,0.,12.0
1979-07-13 03:56:25.050 ,4,0,7.,12.0,0.,12.0,0.,12.0,0.,12.0
1979-07-13 03:56:37.050 ,4,0,8.,12.0,0.,12.0,0.,12.0,0.,12.0
1979-07-13 03:56:49.050 ,3,1,7.,12.0,0.,12.0,0.,12.0,0.,12.0
1979-07-13 03:57:01.050 ,3,1,8.,12.0,0.,12.0,0.,12.0,0.,12.0
1979-07-13 03:57:13.050 ,3,0,9.,12.0,0.,12.0,0.,12.0,0.,12.0
1979-07-13 03:57:25.050 ,3,0,2.,12.0,0.,12.0,0.,12.0,0.,12.0
1979-07-13 03:57:37.050 ,2,1,6.,12.0,0.,12.0,0.,12.0,1.,12.0
1979-07-13 03:57:49.050 ,2,1,9.,12.0,0.,12.0,0.,12.0,0.,12.0
1979-07-13 03:58:01.050 ,2,0,4.,12.0,0.,12.0,0.,12.0,0.,12.0
1979-07-13 03:58:13.050 ,2,0,2.,12.0,0.,12.0,0.,12.0,0.,12.0
1979-07-13 03:58:25.050 ,1,1,4.,12.0,0.,12.0,0.,12.0,0.,12.0
1979-07-13 03:58:37.050 ,1,1,2.,12.0,0.,12.0,0.,12.0,0.,12.0
1979-07-13 03:58:49.050 ,1,0,2.,12.0,0.,12.0,0.,12.0,1.,12.0
1979-07-13 03:59:01.050 ,1,0,2.,12.0,0.,12.0,0.,12.0,0.,12.0
1979-07-13 03:59:13.050 ,0,1,2.,12.0,0.,12.0,0.,12.0,0.,12.0
1979-07-13 03:59:25.050 ,0,1,1.,12.0,0.,12.0,0.,12.0,1.,12.0
1979-07-13 03:59:37.050 ,0,0,1.,12.0,0.,12.0,0.,12.0,0.,12.0
1979-07-13 03:59:49.050 ,0,0,3.,12.0,0.,12.0,0.,12.0,1.,12.0
1979-07-13 04:00:01.050 ,0,1,0.,12.0,0.,12.0,0.,12.0,0.,12.0
1979-07-13 04:00:13.050 ,0,1,2.,12.0,0.,12.0,0.,12.0,0.,12.0
1979-07-13 04:00:25.050 ,0,0,1.,12.0,0.,12.0,0.,12.0,0.,12.0
1979-07-13 04:00:37.050 ,0,0,1.,12.0,0.,12.0,0.,12.0,0.,12.0
1979-07-13 04:00:49.050 ,1,1,1.,12.0,0.,12.0,0.,12.0,0.,12.0
1979-07-13 04:01:01.050 ,1,1,3.,12.0,0.,12.0,0.,12.0,0.,12.0
1979-07-13 04:01:13.050 ,1,0,3.,12.0,0.,12.0,0.,12.0,1.,12.0
1979-07-13 04:01:25.050 ,1,0,4.,12.0,0.,12.0,0.,12.0,0.,12.0
1979-07-13 04:01:37.050 ,2,1,2.,12.0,0.,12.0,0.,12.0,0.,12.0
1979-07-13 04:01:49.050 ,2,1,1.,12.0,0.,12.0,0.,12.0,0.,12.0
1979-07-13 04:02:01.050 ,2,0,1.,12.0,0.,12.0,0.,12.0,0.,12.0
1979-07-13 04:02:13.050 ,2,0,1.,12.0,0.,12.0,0.,12.0,0.,12.0
1979-07-13 04:02:25.050 ,3,1,1.,12.0,0.,12.0,0.,12.0,0.,12.0
1979-07-13 04:02:37.050 ,3,1,5.,12.0,0.,12.0,0.,12.0,0.,12.0
1979-07-13 04:02:49.050 ,3,0,2.,12.0,0.,12.0,0.,12.0,0.,12.0
1979-07-13 04:03:01.050 ,3,0,3.,12.0,0.,12.0,0.,12.0,0.,12.0
1979-07-13 04:03:13.050 ,4,1,4.,12.0,0.,12.0,0.,12.0,0.,12.0
1979-07-13 04:03:25.050 ,4,1,5.,12.0,0.,12.0,0.,12.0,0.,12.0
1979-07-13 04:03:37.050 ,4,0,3.,12.0,0.,12.0,0.,12.0,0.,12.0
1979-07-13 04:03:49.050 ,4,0,7.,12.0,0.,12.0,0.,12.0,0.,12.0
1979-07-13 04:04:01.050 ,5,1,3.,12.0,0.,12.0,0.,12.0,1.,12.0
1979-07-13 04:04:13.050 ,5,1,0.,12.0,0.,12.0,0.,12.0,1.,12.0
1979-07-13 04:04:25.050 ,5,0,5.,12.0,0.,12.0,0.,12.0,0.,12.0
1979-07-13 04:04:37.050 ,5,0,4.,12.0,0.,12.0,0.,12.0,0.,12.0
1979-07-13 04:04:49.050 ,6,1,5.,12.0,0.,12.0,0.,12.0,0.,12.0
1979-07-13 04:05:01.050 ,6,1,2.,12.0,0.,12.0,0.,12.0,1.,12.0
1979-07-13 04:05:13.050 ,6,0,4.,12.0,0.,12.0,0.,12.0,0.,12.0
1979-07-13 04:05:25.050 ,6,0,2.,12.0,0.,12.0,0.,12.0,0.,12.0
1979-07-13 04:05:37.050 ,7,1,3.,12.0,0.,12.0,0.,12.0,1.,12.0
1979-07-13 04:05:49.050 ,7,1,2.,12.0,0.,12.0,0.,12.0,0.,12.0
1979-07-13 04:06:01.050 ,7,0,0.,12.0,0.,12.0,0.,12.0,0.,12.0
1979-07-13 04:06:13.050 ,7,0,0.,12.0,0.,12.0,0.,12.0,0.,12.0
1979-07-13 04:06:25.050 ,7,1,0.,12.0,0.,12.0,0.,12.0,0.,12.0
1979-07-13 04:06:37.050 ,7,1,0.,12.0,0.,12.0,0.,12.0,0.,12.0
1979-07-13 04:06:49.050 ,7,0,0.,12.0,0.,12.0,0.,12.0,0.,12.0
1979-07-13 04:07:01.050 ,7,0,0.,12.0,0.,12.0,0.,12.0,0.,12.0
1979-07-13 04:07:13.050 ,6,1,0.,12.0,0.,12.0,0.,12.0,1.,12.0
1979-07-13 04:07:25.050 ,6,1,0.,12.0,0.,12.0,0.,12.0,0.,12.0
1979-07-13 04:07:37.050 ,6,0,1.,12.0,0.,12.0,0.,12.0,0.,12.0
1979-07-13 04:07:49.050 ,6,0,3.,12.0,0.,12.0,0.,12.0,0.,12.0
1979-07-13 04:08:01.050 ,5,1,2.,12.0,0.,12.0,0.,12.0,0.,12.0
1979-07-13 04:08:13.050 ,5,1,4.,12.0,0.,12.0,0.,12.0,0.,12.0
1979-07-13 04:08:25.050 ,5,0,7.,12.0,0.,12.0,0.,12.0,0.,12.0
1979-07-13 04:08:37.050 ,5,0,3.,12.0,0.,12.0,0.,12.0,0.,12.0
1979-07-13 04:08:49.050 ,4,1,3.,12.0,0.,12.0,0.,12.0,0.,12.0
1979-07-13 04:09:01.050 ,4,1,6.,12.0,0.,12.0,0.,12.0,0.,12.0
1979-07-13 04:09:13.050 ,4,0,9.,12.0,0.,12.0,0.,12.0,0.,12.0
1979-07-13 04:09:25.050 ,4,0,6.,12.0,0.,12.0,0.,12.0,0.,12.0
1979-07-13 04:09:37.050 ,3,1,9.,12.0,0.,12.0,0.,12.0,0.,12.0
1979-07-13 04:09:49.050 ,3,1,10.,12.0,0.,12.0,0.,12.0,0.,12.0
1979-07-13 04:10:01.050 ,3,0,10.,12.0,0.,12.0,0.,12.0,0.,12.0
1979-07-13 04:10:13.050 ,3,0,3.,12.0,0.,12.0,0.,12.0,0.,12.0
1979-07-13 04:10:25.050 ,2,1,1.,12.0,0.,12.0,0.,12.0,0.,12.0
1979-07-13 04:10:37.050 ,2,1,6.,12.0,0.,12.0,0.,12.0,1.,12.0
1979-07-13 04:10:49.050 ,2,0,5.,12.0,0.,12.0,0.,12.0,1.,12.0
1979-07-13 04:11:01.050 ,2,0,5.,12.0,0.,12.0,0.,12.0,1.,12.0
1979-07-13 04:11:13.050 ,1,1,2.,12.0,0.,12.0,0.,12.0,0.,12.0
1979-07-13 04:11:25.050 ,1,1,1.,12.0,0.,12.0,0.,12.0,1.,12.0
1979-07-13 04:11:37.050 ,1,0,1.,12.0,0.,12.0,0.,12.0,1.,12.0
1979-07-13 04:11:49.050 ,1,0,2.,12.0,0.,12.0,0.,12.0,0.,12.0
1979-07-13 04:12:01.050 ,0,1,2.,12.0,0.,12.0,0.,12.0,0.,12.0
1979-07-13 04:12:13.050 ,0,1,7.,12.0,0.,12.0,0.,12.0,0.,12.0
1979-07-13 04:12:25.050 ,0,0,1.,12.0,0.,12.0,0.,12.0,0.,12.0
1979-07-13 04:12:37.050 ,0,0,2.,12.0,0.,12.0,0.,12.0,0.,12.0
1979-07-13 04:12:49.050 ,0,1,0.,12.0,0.,12.0,0.,12.0,0.,12.0
1979-07-13 04:13:01.050 ,0,1,1.,12.0,0.,12.0,0.,12.0,0.,12.0
1979-07-13 04:13:13.050 ,0,0,1.,12.0,0.,12.0,0.,12.0,0.,12.0
1979-07-13 04:13:25.050 ,0,0,2.,12.0,0.,12.0,0.,12.0,0.,12.0
1979-07-13 04:13:37.050 ,1,1,0.,12.0,0.,12.0,0.,12.0,1.,12.0
1979-07-13 04:13:49.050 ,1,1,1.,12.0,0.,12.0,0.,12.0,1.,12.0
1979-07-13 04:14:01.050 ,1,0,0.,12.0,0.,12.0,0.,12.0,0.,12.0
1979-07-13 04:14:13.050 ,1,0,2.,12.0,0.,12.0,0.,12.0,0.,12.0
1979-07-13 04:14:25.050 ,0,0,1.,12.0,0.,12.0,0.,12.0,0.,12.0
1979-07-13 04:14:37.050 ,0,0,,0,,0,,0,,0
1979-07-13 04:14:49.050 ,0,0,,0,,0,,0,,0
1979-07-13 04:15:01.050 ,0,0,,0,,0,,0,,0
1979-07-13 04:50:01.650 ,0,0,0.,12.0,0.,12.0,0.,12.0,0.,12.0
1979-07-13 04:50:13.650 ,0,0,1.,12.0,0.,12.0,0.,12.0,0.,12.0
1979-07-13 04:50:25.050 ,3,1,1.,12.0,0.,12.0,0.,12.0,0.,12.0
1979-07-13 04:50:37.050 ,3,1,1.,12.0,0.,12.0,0.,12.0,0.,12.0
1979-07-13 04:50:49.050 ,3,0,1.,12.0,0.,12.0,0.,12.0,0.,12.0
1979-07-13 04:51:01.050 ,3,0,1.,12.0,0.,12.0,0.,12.0,0.,12.0
1979-07-13 04:51:13.050 ,4,1,1.,12.0,0.,12.0,0.,12.0,0.,12.0
1979-07-13 04:51:25.050 ,4,1,2.,12.0,0.,12.0,0.,12.0,0.,12.0
1979-07-13 04:51:37.050 ,4,0,0.,12.0,0.,12.0,0.,12.0,0.,12.0
1979-07-13 04:51:49.050 ,4,0,2.,12.0,0.,12.0,0.,12.0,0.,12.0
1979-07-13 04:52:01.050 ,5,1,3.,12.0,0.,12.0,0.,12.0,0.,12.0